Location: Newark
(29.9790°N, 31.1340°E)
Time: 07:02:13
(UTC+00:00)

Tiros 1 - Pass Details

Date: 22 January 2020
Orbit: 631 x 664 km, 48.4° (Epoch: 20 February)

Event Time Altitude Azimuth Distance (km) Brightness Sun altitude
Rises 16:33:43 0° 323° (NW) 2,980 10.9 -15.3°
Reaches altitude 10° 16:36:49 10° 343° (NNW) 2,072 9.8 -15.9°
Maximum altitude 16:39:58 17° 25° (NNE) 1,644 8.9 -16.6°
Enters shadow 16:40:12 17° 28° (NNE) 1,647 8.8 -16.6°
